カタログに戻る

IRIDIUM 33 DEB

運用中PO
NORAD 36083·DEBRIS·🇺🇸 United States

打ち上げ Sep 14, 1997 から Baikonur Cosmodrome

Loading…

次のパス (今後24時間)

TLE

最新Source: Space-Track

元期: Sep 11, 2026, 07:35 UTC

1 36083U 97051VQ  26254.31640029  .00000894  00000-0  25443-3 0  9998
2 36083  86.3376 276.7228 0027816  48.1897 312.1674 14.44067827893827

AllMySatでIRIDIUM 33 DEBをリアルタイム追跡

Download on the App Store